NJE412 CYYT-EINN

Flight info

Callsign NJE412
Flight time 3h 35m
Altitude 45000
Route YYT DCT NICSO DCT 48N050W DCT 50N040W 52N030W 54N020W DCT DOGAL DCT BEXET/N0494F450 DCT ERABI ERABI3D
Aircraft C750/M-SBDE3FGHRWXY/S

Departure

Time 2026-04-25 18:52
Airport St. John's International Airport (CYYT)

Arrival

Time 2026-04-25 22:27
Airport Shannon Airport (EINN)
Time Latitude Longitude Altitude Speed Heading
2026-04-25 18:17 47.61149 -52.74067 441 ft 0 kts 266°
2026-04-25 18:41 47.61150 -52.74068 445 ft 0 kts 270°
2026-04-25 18:41 47.61157 -52.74074 435 ft 2 kts 344°
2026-04-25 18:41 47.61163 -52.74070 438 ft 0 kts 34°
2026-04-25 18:42 47.61166 -52.74032 443 ft 6 kts 96°
2026-04-25 18:42 47.61163 -52.73999 445 ft 4 kts 96°
2026-04-25 18:42 47.61170 -52.73972 441 ft 0 kts 46°
2026-04-25 18:43 47.61181 -52.73962 444 ft 5 kts 25°
2026-04-25 18:43 47.61219 -52.73964 441 ft 5 kts 355°
2026-04-25 18:43 47.61247 -52.73968 437 ft 3 kts 355°
2026-04-25 18:43 47.61258 -52.73969 445 ft 3 kts
2026-04-25 18:44 47.61322 -52.73964 445 ft 14 kts 353°
2026-04-25 18:44 47.61385 -52.74044 445 ft 14 kts 294°
2026-04-25 18:44 47.61417 -52.74160 445 ft 11 kts 295°
2026-04-25 18:44 47.61450 -52.74265 445 ft 11 kts 294°
2026-04-25 18:45 47.61491 -52.74356 439 ft 11 kts 343°
2026-04-25 18:45 47.61547 -52.74299 438 ft 10 kts 49°
2026-04-25 18:45 47.61592 -52.74227 442 ft 9 kts 49°
2026-04-25 18:45 47.61659 -52.74112 432 ft 23 kts 47°
2026-04-25 18:46 47.61758 -52.74118 425 ft 17 kts 317°
2026-04-25 18:46 47.61876 -52.74271 434 ft 28 kts 319°
2026-04-25 18:46 47.62018 -52.74454 441 ft 24 kts 319°
2026-04-25 18:46 47.62122 -52.74587 448 ft 15 kts 319°
2026-04-25 18:47 47.62188 -52.74670 449 ft 11 kts 319°
2026-04-25 18:47 47.62262 -52.74765 448 ft 20 kts 319°
2026-04-25 18:47 47.62381 -52.74918 437 ft 23 kts 319°
2026-04-25 18:47 47.62459 -52.75099 442 ft 21 kts 267°
2026-04-25 18:48 47.62448 -52.75293 438 ft 17 kts 265°
2026-04-25 18:48 47.62443 -52.75470 447 ft 18 kts 268°
2026-04-25 18:48 47.62440 -52.75611 455 ft 13 kts 268°
2026-04-25 18:48 47.62432 -52.75748 460 ft 11 kts 265°
2026-04-25 18:49 47.62425 -52.75896 463 ft 20 kts 266°
2026-04-25 18:49 47.62415 -52.76161 473 ft 32 kts 267°
2026-04-25 18:49 47.62396 -52.76568 470 ft 46 kts 265°
2026-04-25 18:49 47.62375 -52.76962 460 ft 33 kts 265°
2026-04-25 18:50 47.62349 -52.77110 460 ft 6 kts 291°
2026-04-25 18:50 47.62374 -52.77102 460 ft 5 kts 68°
2026-04-25 18:50 47.62374 -52.77066 460 ft 3 kts 94°
2026-04-25 18:50 47.62372 -52.77019 460 ft 4 kts 89°
2026-04-25 18:51 47.62373 -52.76992 460 ft 1 kts 85°
2026-04-25 18:51 47.62374 -52.76970 460 ft 8 kts 86°
2026-04-25 18:51 47.62405 -52.76314 467 ft 96 kts 86°
2026-04-25 18:51 47.62471 -52.75050 464 ft 140 kts 76°
2026-04-25 18:52 47.62544 -52.73592 796 ft 145 kts 75°
2026-04-25 18:52 47.62616 -52.72066 1236 ft 149 kts 77°
2026-04-25 18:52 47.62628 -52.70510 1671 ft 157 kts 86°
2026-04-25 18:52 47.62325 -52.68894 2107 ft 167 kts 100°
2026-04-25 18:53 47.62060 -52.67279 2679 ft 157 kts 91°
2026-04-25 18:53 47.61810 -52.65656 3138 ft 167 kts 94°
2026-04-25 18:53 47.61503 -52.63966 3555 ft 170 kts 94°
2026-04-25 18:53 47.61195 -52.62255 3997 ft 173 kts 93°
2026-04-25 18:54 47.60567 -52.58731 4862 ft 181 kts 94°
2026-04-25 18:54 47.60243 -52.56908 5297 ft 185 kts 94°
2026-04-25 18:54 47.59912 -52.55050 5742 ft 189 kts 95°
2026-04-25 18:55 47.59573 -52.53139 6162 ft 195 kts 95°
2026-04-25 18:55 47.59223 -52.51162 6578 ft 201 kts 95°
2026-04-25 18:55 47.58860 -52.49125 7003 ft 207 kts 96°
2026-04-25 18:55 47.58486 -52.47025 7437 ft 214 kts 96°
2026-04-25 18:56 47.58100 -52.44848 7815 ft 225 kts 96°
2026-04-25 18:56 47.57686 -52.42502 8121 ft 245 kts 97°
2026-04-25 18:56 47.57235 -52.39977 8450 ft 262 kts 98°
2026-04-25 18:56 47.56751 -52.37289 8796 ft 278 kts 98°
2026-04-25 18:57 47.56243 -52.34456 9135 ft 292 kts 98°
2026-04-25 18:57 47.55711 -52.31505 9520 ft 301 kts 98°
2026-04-25 18:57 47.55165 -52.28473 9912 ft 309 kts 99°
2026-04-25 18:57 47.54797 -52.26429 10169 ft 313 kts 99°
2026-04-25 18:58 47.54035 -52.22208 10710 ft 321 kts 99°
2026-04-25 18:58 47.52862 -52.15716 11496 ft 332 kts 99°
2026-04-25 18:58 47.52259 -52.12393 11898 ft 336 kts 99°
2026-04-25 18:59 47.51028 -52.05626 12698 ft 344 kts 99°
2026-04-25 18:59 47.50506 -51.98701 13392 ft 338 kts 76°
2026-04-25 19:00 47.52027 -51.92248 14130 ft 336 kts 64°
2026-04-25 19:00 47.52867 -51.89019 14519 ft 337 kts 64°
2026-04-25 19:01 47.54551 -51.82502 15295 ft 340 kts 64°
2026-04-25 19:01 47.55403 -51.79226 15685 ft 342 kts 64°
2026-04-25 19:01 47.56255 -51.75932 16079 ft 344 kts 64°
2026-04-25 19:01 47.57111 -51.72616 16479 ft 346 kts 64°
2026-04-25 19:02 47.58834 -51.65927 17342 ft 350 kts 64°
2026-04-25 19:02 47.59703 -51.62549 17736 ft 351 kts 64°
2026-04-25 19:02 47.60575 -51.59154 18095 ft 353 kts 64°
2026-04-25 19:03 47.61743 -51.54595 18575 ft 355 kts 63°
2026-04-25 19:03 47.63207 -51.48869 19190 ft 358 kts 63°
2026-04-25 19:03 47.64091 -51.45409 19582 ft 360 kts 63°
2026-04-25 19:04 47.65865 -51.38439 20352 ft 362 kts 63°
2026-04-25 19:04 47.66755 -51.34935 20736 ft 364 kts 63°
2026-04-25 19:05 47.68539 -51.27897 21538 ft 365 kts 63°
2026-04-25 19:05 47.70329 -51.20813 22353 ft 367 kts 62°
2026-04-25 19:05 47.71224 -51.17264 22771 ft 367 kts 62°
2026-04-25 19:06 47.72117 -51.13713 23132 ft 368 kts 62°
2026-04-25 19:06 47.73906 -51.06589 23831 ft 369 kts 62°
2026-04-25 19:06 47.74802 -51.03014 24214 ft 369 kts 63°
2026-04-25 19:07 47.76591 -50.95857 24948 ft 370 kts 63°
2026-04-25 19:07 47.77486 -50.92266 25322 ft 370 kts 63°
2026-04-25 19:08 47.79278 -50.85062 26073 ft 372 kts 63°
2026-04-25 19:08 47.80173 -50.81453 26458 ft 373 kts 63°
2026-04-25 19:09 47.82904 -50.70434 26930 ft 394 kts 64°
2026-04-25 19:09 47.83547 -50.67822 26930 ft 401 kts 65°
2026-04-25 19:09 47.85833 -50.58516 26926 ft 422 kts 66°
2026-04-25 19:10 47.86847 -50.54380 26932 ft 430 kts 66°
2026-04-25 19:10 47.87879 -50.50160 26929 ft 437 kts 66°
2026-04-25 19:10 47.88924 -50.45878 26928 ft 443 kts 66°
2026-04-25 19:10 47.89986 -50.41523 26931 ft 450 kts 66°
2026-04-25 19:11 47.91059 -50.37113 26915 ft 455 kts 66°
2026-04-25 19:11 47.92141 -50.32651 26917 ft 460 kts 66°
2026-04-25 19:11 47.93232 -50.28148 26916 ft 465 kts 66°
2026-04-25 19:11 47.94334 -50.23591 26918 ft 468 kts 66°
2026-04-25 19:12 47.95440 -50.19006 26912 ft 471 kts 67°
2026-04-25 19:12 47.96547 -50.14404 26914 ft 472 kts 67°
2026-04-25 19:12 47.97655 -50.09789 26916 ft 472 kts 67°
2026-04-25 19:12 47.98761 -50.05176 26916 ft 472 kts 67°
2026-04-25 19:13 47.99863 -50.00571 26909 ft 470 kts 67°
2026-04-25 19:13 48.01012 -49.96015 26907 ft 468 kts 66°
2026-04-25 19:13 48.02143 -49.91533 26904 ft 466 kts 66°
2026-04-25 19:13 48.03273 -49.87000 26902 ft 465 kts 66°
2026-04-25 19:14 48.04404 -49.82490 26899 ft 463 kts 66°
2026-04-25 19:14 48.04788 -49.80967 26924 ft 463 kts 67°
2026-04-25 19:14 48.06676 -49.73438 26902 ft 466 kts 68°
2026-04-25 19:14 48.07806 -49.68893 26904 ft 468 kts 68°
2026-04-25 19:15 48.08944 -49.64319 26907 ft 470 kts 68°
2026-04-25 19:15 48.10089 -49.59723 26906 ft 472 kts 68°
2026-04-25 19:15 48.11232 -49.55111 26909 ft 474 kts 68°
2026-04-25 19:15 48.12376 -49.50484 26912 ft 475 kts 68°
2026-04-25 19:16 48.13523 -49.45840 26915 ft 476 kts 68°
2026-04-25 19:16 48.14670 -49.41187 26917 ft 477 kts 69°
2026-04-25 19:16 48.15816 -49.36528 26924 ft 477 kts 69°
2026-04-25 19:16 48.16960 -49.31861 26925 ft 478 kts 69°
2026-04-25 19:17 48.18106 -49.27182 26922 ft 478 kts 69°
2026-04-25 19:17 48.19249 -49.22509 26924 ft 478 kts 69°
2026-04-25 19:17 48.20391 -49.17828 26923 ft 478 kts 69°
2026-04-25 19:17 48.21530 -49.13146 26925 ft 478 kts 69°
2026-04-25 19:18 48.22667 -49.08462 26924 ft 478 kts 69°
2026-04-25 19:18 48.23802 -49.03780 26930 ft 478 kts 69°
2026-04-25 19:18 48.24937 -48.99089 26929 ft 478 kts 69°
2026-04-25 19:18 48.26054 -48.94457 26930 ft 478 kts 69°
2026-04-25 19:19 48.27185 -48.89760 26927 ft 478 kts 69°
2026-04-25 19:19 48.28313 -48.85068 26935 ft 478 kts 69°
2026-04-25 19:19 48.29439 -48.80370 26934 ft 478 kts 70°
2026-04-25 19:19 48.29817 -48.78792 26933 ft 477 kts 70°
2026-04-25 19:20 48.31682 -48.70987 26932 ft 477 kts 70°
2026-04-25 19:20 48.32801 -48.66290 26930 ft 477 kts 70°
2026-04-25 19:20 48.33915 -48.61607 26927 ft 475 kts 70°
2026-04-25 19:20 48.35025 -48.56928 26928 ft 475 kts 70°
2026-04-25 19:21 48.36133 -48.52247 26926 ft 475 kts 71°
2026-04-25 19:21 48.38349 -48.42848 26928 ft 478 kts 71°
2026-04-25 19:21 48.39460 -48.38125 26938 ft 479 kts 71°
2026-04-25 19:22 48.40571 -48.33393 26943 ft 480 kts 71°
2026-04-25 19:22 48.41682 -48.28649 26942 ft 481 kts 71°
2026-04-25 19:22 48.43888 -48.19194 26946 ft 483 kts 71°
2026-04-25 19:23 48.44999 -48.14419 26951 ft 482 kts 71°
2026-04-25 19:23 48.47214 -48.04867 26952 ft 482 kts 72°
2026-04-25 19:23 48.48317 -48.00093 26952 ft 482 kts 72°
2026-04-25 19:24 48.49417 -47.95319 26953 ft 483 kts 72°
2026-04-25 19:24 48.50161 -47.92087 26953 ft 483 kts 72°
2026-04-25 19:24 48.52356 -47.82523 26963 ft 483 kts 73°
2026-04-25 19:25 48.54539 -47.72960 26960 ft 487 kts 73°
2026-04-25 19:25 48.55657 -47.68052 26973 ft 489 kts 73°
2026-04-25 19:25 48.56747 -47.63252 26976 ft 491 kts 73°
2026-04-25 19:26 48.57854 -47.58365 26977 ft 493 kts 73°
2026-04-25 19:26 48.58962 -47.53463 26985 ft 494 kts 73°
2026-04-25 19:26 48.60073 -47.48539 26986 ft 496 kts 73°
2026-04-25 19:26 48.61184 -47.43602 26988 ft 496 kts 73°
2026-04-25 19:27 48.62294 -47.38658 26989 ft 497 kts 73°
2026-04-25 19:27 48.63044 -47.35311 27001 ft 497 kts 73°
2026-04-25 19:27 48.64510 -47.28752 27001 ft 498 kts 73°
2026-04-25 19:27 48.65617 -47.23788 26993 ft 499 kts 74°
2026-04-25 19:28 48.66727 -47.18800 27002 ft 501 kts 74°
2026-04-25 19:28 48.67836 -47.13800 27005 ft 502 kts 73°
2026-04-25 19:28 48.68948 -47.08774 27008 ft 503 kts 74°
2026-04-25 19:28 48.70059 -47.03742 27011 ft 504 kts 74°
2026-04-25 19:29 48.71169 -46.98706 27024 ft 504 kts 74°
2026-04-25 19:29 48.72276 -46.93668 27025 ft 504 kts 74°
2026-04-25 19:29 48.73382 -46.88621 27021 ft 505 kts 73°
2026-04-25 19:29 48.74483 -46.83586 27018 ft 505 kts 74°
2026-04-25 19:30 48.75588 -46.78519 27020 ft 506 kts 74°
2026-04-25 19:30 48.76692 -46.73449 27017 ft 508 kts 74°
2026-04-25 19:30 48.77797 -46.68359 27017 ft 508 kts 74°
2026-04-25 19:30 48.78897 -46.63274 27029 ft 508 kts 74°
2026-04-25 19:31 48.79998 -46.58178 27027 ft 509 kts 75°
2026-04-25 19:31 48.81096 -46.53081 27028 ft 508 kts 75°
2026-04-25 19:31 48.82193 -46.47978 27035 ft 509 kts 75°
2026-04-25 19:31 48.83273 -46.42940 27034 ft 509 kts 75°
2026-04-25 19:32 48.84366 -46.37831 27035 ft 508 kts 75°
2026-04-25 19:32 48.85454 -46.32731 27046 ft 508 kts 75°
2026-04-25 19:32 48.86540 -46.27629 27045 ft 507 kts 75°
2026-04-25 19:32 48.87271 -46.24186 27044 ft 507 kts 75°
2026-04-25 19:33 48.88699 -46.17444 27041 ft 506 kts 75°
2026-04-25 19:33 48.89776 -46.12346 27048 ft 505 kts 75°
2026-04-25 19:33 48.90846 -46.07268 27047 ft 504 kts 75°
2026-04-25 19:33 48.91913 -46.02192 27054 ft 503 kts 75°
2026-04-25 19:34 48.92975 -45.97124 27046 ft 503 kts 75°
2026-04-25 19:34 48.94032 -45.92068 27066 ft 502 kts 75°
2026-04-25 19:34 48.95086 -45.87011 27064 ft 501 kts 76°
2026-04-25 19:34 48.96137 -45.81960 27064 ft 501 kts 76°
2026-04-25 19:35 48.97185 -45.76908 27074 ft 500 kts 76°
2026-04-25 19:35 48.98231 -45.71856 27073 ft 500 kts 76°
2026-04-25 19:35 48.99273 -45.66808 27073 ft 500 kts 76°
2026-04-25 19:35 49.00313 -45.61756 27081 ft 500 kts 76°
2026-04-25 19:36 49.01352 -45.56698 27082 ft 500 kts 76°
2026-04-25 19:36 49.02389 -45.51641 27082 ft 500 kts 76°
2026-04-25 19:36 49.03422 -45.46585 27086 ft 500 kts 76°
2026-04-25 19:36 49.04454 -45.41520 27094 ft 500 kts 76°
2026-04-25 19:37 49.05484 -45.36455 27099 ft 501 kts 76°
2026-04-25 19:37 49.06513 -45.31383 27099 ft 501 kts 76°
2026-04-25 19:37 49.07541 -45.26299 27105 ft 501 kts 76°
2026-04-25 19:37 49.08565 -45.21221 27106 ft 502 kts 76°
2026-04-25 19:38 49.09591 -45.16127 27108 ft 502 kts 76°
2026-04-25 19:38 49.10612 -45.11037 27109 ft 502 kts 77°
2026-04-25 19:38 49.11619 -45.06011 27118 ft 502 kts 77°
2026-04-25 19:38 49.12636 -45.00913 27118 ft 502 kts 77°
2026-04-25 19:39 49.13656 -44.95795 27109 ft 502 kts 77°
2026-04-25 19:39 49.14670 -44.90689 27119 ft 503 kts 77°
2026-04-25 19:39 49.15683 -44.85578 27115 ft 503 kts 77°
2026-04-25 19:39 49.16692 -44.80469 27115 ft 503 kts 77°
2026-04-25 19:40 49.17700 -44.75355 27120 ft 502 kts 77°
2026-04-25 19:40 49.18706 -44.70233 27121 ft 503 kts 78°
2026-04-25 19:40 49.19711 -44.65104 27131 ft 503 kts 78°
2026-04-25 19:40 49.20715 -44.59972 27131 ft 504 kts 78°
2026-04-25 19:41 49.21716 -44.54838 27129 ft 504 kts 78°
2026-04-25 19:41 49.22719 -44.49682 27136 ft 505 kts 78°
2026-04-25 19:41 49.23717 -44.44533 27130 ft 505 kts 78°
2026-04-25 19:41 49.24378 -44.41117 27126 ft 505 kts 78°
2026-04-25 19:42 49.25711 -44.34210 27140 ft 506 kts 78°
2026-04-25 19:42 49.26693 -44.29107 27140 ft 506 kts 78°
2026-04-25 19:42 49.27685 -44.23933 27140 ft 506 kts 78°
2026-04-25 19:42 49.28675 -44.18760 27134 ft 506 kts 78°
2026-04-25 19:43 49.29661 -44.13598 27144 ft 505 kts 78°
2026-04-25 19:43 49.30644 -44.08427 27144 ft 505 kts 78°
2026-04-25 19:43 49.31626 -44.03254 27144 ft 505 kts 78°
2026-04-25 19:43 49.32606 -43.98075 27147 ft 505 kts 78°
2026-04-25 19:44 49.33582 -43.92902 27153 ft 505 kts 78°
2026-04-25 19:44 49.34556 -43.87728 27155 ft 505 kts 78°
2026-04-25 19:44 49.35527 -43.82549 27160 ft 505 kts 78°
2026-04-25 19:44 49.36498 -43.77366 27159 ft 505 kts 78°
2026-04-25 19:45 49.37464 -43.72190 27157 ft 504 kts 79°
2026-04-25 19:45 49.38428 -43.67014 27157 ft 504 kts 79°
2026-04-25 19:45 49.39375 -43.61902 27161 ft 504 kts 79°
2026-04-25 19:45 49.40333 -43.56720 27160 ft 505 kts 79°
2026-04-25 19:46 49.41292 -43.51533 27158 ft 506 kts 79°
2026-04-25 19:46 49.42248 -43.46338 27167 ft 506 kts 79°
2026-04-25 19:46 49.43203 -43.41133 27168 ft 507 kts 79°
2026-04-25 19:46 49.44158 -43.35913 27168 ft 507 kts 79°
2026-04-25 19:47 49.45110 -43.30698 27169 ft 507 kts 80°
2026-04-25 19:47 49.46062 -43.25468 27175 ft 507 kts 81°
2026-04-25 19:47 49.47009 -43.20247 27170 ft 507 kts 81°
2026-04-25 19:47 49.47952 -43.15026 27174 ft 508 kts 81°
2026-04-25 19:48 49.48898 -43.09787 27177 ft 508 kts 81°
2026-04-25 19:48 49.49842 -43.04545 27178 ft 509 kts 81°
2026-04-25 19:48 49.50782 -42.99298 27178 ft 509 kts 81°
2026-04-25 19:48 49.51722 -42.94044 27181 ft 509 kts 81°
2026-04-25 19:49 49.52659 -42.88789 27189 ft 509 kts 81°
2026-04-25 19:49 49.52962 -42.87087 27189 ft 509 kts 81°
2026-04-25 19:49 49.54525 -42.78283 27182 ft 508 kts 82°
2026-04-25 19:49 49.55452 -42.73029 27183 ft 509 kts 82°
2026-04-25 19:50 49.57305 -42.62506 27178 ft 508 kts 83°
2026-04-25 19:50 49.58215 -42.57311 27184 ft 509 kts 83°
2026-04-25 19:50 49.59134 -42.52042 27184 ft 510 kts 83°
2026-04-25 19:51 49.60052 -42.46765 27184 ft 510 kts 83°
2026-04-25 19:51 49.60972 -42.41477 27184 ft 511 kts 83°
2026-04-25 19:51 49.61890 -42.36174 27167 ft 511 kts 83°
2026-04-25 19:51 49.62803 -42.30889 27191 ft 510 kts 83°
2026-04-25 19:52 49.63713 -42.25592 27189 ft 511 kts 83°
2026-04-25 19:52 49.64623 -42.20286 27194 ft 512 kts 83°
2026-04-25 19:52 49.65531 -42.14980 27201 ft 512 kts 83°
2026-04-25 19:52 49.66439 -42.09658 27201 ft 513 kts 83°
2026-04-25 19:53 49.67343 -42.04335 27197 ft 513 kts 83°
2026-04-25 19:53 49.68247 -41.99001 27198 ft 513 kts 83°
2026-04-25 19:53 49.69148 -41.93674 27201 ft 513 kts 84°
2026-04-25 19:53 49.70046 -41.88343 27197 ft 512 kts 84°
2026-04-25 19:54 49.70940 -41.83022 27198 ft 512 kts 84°
2026-04-25 19:54 49.71828 -41.77703 27200 ft 512 kts 84°
2026-04-25 19:54 49.72719 -41.72367 27200 ft 512 kts 84°
2026-04-25 19:54 49.73007 -41.70638 27200 ft 512 kts 84°
2026-04-25 19:55 49.74490 -41.61707 27200 ft 512 kts 84°
2026-04-25 19:55 49.75372 -41.56369 27187 ft 512 kts 84°
2026-04-25 19:55 49.76250 -41.51043 27202 ft 512 kts 84°
2026-04-25 19:55 49.77127 -41.45702 27202 ft 512 kts 84°
2026-04-25 19:56 49.77989 -41.40439 27207 ft 512 kts 84°
2026-04-25 19:56 49.78864 -41.35074 27208 ft 515 kts 84°
2026-04-25 19:56 49.79740 -41.29691 27210 ft 518 kts 84°
2026-04-25 19:56 49.80618 -41.24282 27213 ft 520 kts 84°
2026-04-25 19:57 49.81498 -41.18843 27215 ft 520 kts 84°
2026-04-25 19:57 49.82373 -41.13408 27216 ft 521 kts 84°
2026-04-25 19:57 49.83249 -41.07955 27219 ft 521 kts 84°
2026-04-25 19:57 49.84121 -41.02504 27220 ft 521 kts 84°
2026-04-25 19:58 49.84990 -40.97061 27178 ft 520 kts 84°
2026-04-25 19:58 49.85857 -40.91612 27207 ft 521 kts 85°
2026-04-25 19:58 49.86720 -40.86159 27210 ft 521 kts 85°
2026-04-25 19:58 49.87582 -40.80700 27210 ft 522 kts 85°
2026-04-25 19:59 49.88443 -40.75240 27210 ft 522 kts 85°
2026-04-25 19:59 49.89302 -40.69766 27211 ft 522 kts 85°
2026-04-25 19:59 49.90156 -40.64299 27211 ft 522 kts 85°
2026-04-25 19:59 49.91009 -40.58829 27211 ft 522 kts 85°
2026-04-25 20:00 49.91860 -40.53351 27211 ft 521 kts 85°
2026-04-25 20:00 49.92136 -40.51577 27174 ft 522 kts 85°
2026-04-25 20:00 49.93551 -40.42412 27222 ft 522 kts 85°
2026-04-25 20:00 49.94395 -40.36924 27220 ft 524 kts 85°
2026-04-25 20:01 49.96084 -40.25886 27228 ft 526 kts 85°
2026-04-25 20:01 49.96915 -40.20429 27228 ft 526 kts 85°
2026-04-25 20:01 49.97753 -40.14900 27229 ft 526 kts 85°
2026-04-25 20:02 49.98589 -40.09367 27235 ft 526 kts 85°
2026-04-25 20:02 49.99423 -40.03832 27235 ft 526 kts 85°
2026-04-25 20:02 50.00428 -39.98335 27224 ft 534 kts 78°
2026-04-25 20:02 50.01788 -39.92937 27239 ft 536 kts 76°
2026-04-25 20:03 50.03156 -39.87541 27244 ft 536 kts 76°
2026-04-25 20:03 50.04498 -39.82127 27248 ft 536 kts 76°
2026-04-25 20:03 50.05843 -39.76724 27249 ft 536 kts 76°
2026-04-25 20:03 50.07206 -39.71321 27251 ft 536 kts 76°
2026-04-25 20:04 50.08564 -39.65907 27249 ft 536 kts 76°
2026-04-25 20:04 50.09905 -39.60483 27236 ft 535 kts 76°
2026-04-25 20:04 50.11243 -39.55069 27241 ft 536 kts 76°
2026-04-25 20:04 50.12593 -39.49637 27240 ft 537 kts 76°
2026-04-25 20:05 50.13935 -39.44220 27246 ft 537 kts 76°
2026-04-25 20:05 50.15272 -39.38781 27246 ft 537 kts 76°
2026-04-25 20:05 50.16605 -39.33343 27246 ft 537 kts 76°
2026-04-25 20:05 50.17924 -39.27971 27248 ft 537 kts 76°
2026-04-25 20:06 50.19254 -39.22543 27249 ft 537 kts 76°
2026-04-25 20:06 50.20599 -39.17025 27245 ft 535 kts 76°
2026-04-25 20:06 50.21921 -39.11590 27259 ft 536 kts 76°
2026-04-25 20:06 50.23243 -39.06141 27264 ft 537 kts 76°
2026-04-25 20:07 50.24550 -39.00749 27260 ft 539 kts 76°
2026-04-25 20:07 50.25876 -38.95259 27264 ft 540 kts 76°
2026-04-25 20:07 50.27199 -38.89766 27265 ft 541 kts 76°
2026-04-25 20:07 50.28524 -38.84251 27265 ft 542 kts 76°
2026-04-25 20:08 50.29851 -38.78719 27269 ft 544 kts 76°
2026-04-25 20:08 50.31171 -38.73213 27265 ft 538 kts 76°
2026-04-25 20:08 50.32478 -38.67736 27267 ft 538 kts 76°
2026-04-25 20:08 50.33780 -38.62236 27268 ft 538 kts 76°
2026-04-25 20:09 50.35049 -38.56885 27274 ft 539 kts 76°
2026-04-25 20:09 50.36356 -38.51380 27277 ft 540 kts 76°
2026-04-25 20:09 50.37660 -38.45864 27275 ft 541 kts 76°
2026-04-25 20:09 50.38962 -38.40326 27276 ft 541 kts 77°
2026-04-25 20:10 50.39824 -38.36653 27278 ft 542 kts 76°
2026-04-25 20:10 50.41567 -38.29228 27279 ft 542 kts 76°
2026-04-25 20:10 50.42866 -38.23674 27281 ft 543 kts 76°
2026-04-25 20:10 50.44146 -38.18173 27281 ft 544 kts 76°
2026-04-25 20:11 50.45442 -38.12597 27282 ft 545 kts 76°
2026-04-25 20:11 50.46739 -38.07009 27288 ft 545 kts 76°
2026-04-25 20:11 50.48035 -38.01408 27289 ft 545 kts 76°
2026-04-25 20:11 50.49327 -37.95804 27289 ft 545 kts 76°
2026-04-25 20:12 50.50614 -37.90209 27286 ft 545 kts 75°
2026-04-25 20:12 50.51899 -37.84614 27292 ft 545 kts 75°
2026-04-25 20:12 50.53186 -37.78993 27293 ft 546 kts 75°
2026-04-25 20:12 50.53619 -37.77095 27293 ft 546 kts 75°
2026-04-25 20:13 50.55318 -37.69638 27303 ft 547 kts 75°
2026-04-25 20:13 50.56601 -37.63996 27305 ft 548 kts 75°
2026-04-25 20:13 50.57879 -37.58359 27307 ft 548 kts 76°
2026-04-25 20:13 50.59156 -37.52706 27309 ft 548 kts 76°
2026-04-25 20:14 50.60430 -37.47055 27300 ft 543 kts 75°
2026-04-25 20:14 50.61688 -37.41491 27318 ft 538 kts 75°
2026-04-25 20:14 50.62933 -37.35942 27313 ft 534 kts 75°
2026-04-25 20:14 50.64159 -37.30441 27311 ft 530 kts 75°
2026-04-25 20:15 50.65377 -37.24975 27318 ft 528 kts 75°
2026-04-25 20:15 50.66591 -37.19532 27320 ft 525 kts 75°
2026-04-25 20:15 50.67793 -37.14111 27323 ft 523 kts 76°
2026-04-25 20:15 50.68987 -37.08706 27318 ft 522 kts 76°
2026-04-25 20:16 50.70179 -37.03307 27290 ft 520 kts 75°
2026-04-25 20:16 50.71367 -36.97918 27333 ft 521 kts 75°
2026-04-25 20:16 50.72557 -36.92495 27332 ft 524 kts 75°
2026-04-25 20:16 50.73748 -36.87042 27345 ft 528 kts 75°
2026-04-25 20:17 50.74945 -36.81580 27657 ft 523 kts 75°
2026-04-25 20:17 50.76128 -36.76168 28010 ft 518 kts 75°
2026-04-25 20:17 50.77289 -36.70810 28373 ft 514 kts 76°
2026-04-25 20:17 50.78444 -36.65469 28731 ft 511 kts 76°
2026-04-25 20:18 50.79592 -36.60162 29063 ft 509 kts 75°
2026-04-25 20:18 50.80734 -36.54877 29427 ft 508 kts 75°
2026-04-25 20:18 50.81855 -36.49664 29795 ft 507 kts 75°
2026-04-25 20:18 50.82985 -36.44392 30107 ft 506 kts 75°
2026-04-25 20:19 50.84116 -36.39112 30376 ft 507 kts 76°
2026-04-25 20:19 50.85247 -36.33812 30634 ft 509 kts 76°
2026-04-25 20:19 50.86378 -36.28499 30883 ft 511 kts 76°
2026-04-25 20:19 50.87512 -36.23153 31134 ft 512 kts 76°
2026-04-25 20:20 50.88646 -36.17799 31371 ft 514 kts 76°
2026-04-25 20:20 50.89780 -36.12430 31625 ft 515 kts 76°
2026-04-25 20:20 50.90916 -36.07036 31884 ft 517 kts 76°
2026-04-25 20:20 50.92052 -36.01628 32145 ft 518 kts 76°
2026-04-25 20:21 50.93191 -35.96192 32417 ft 520 kts 76°
2026-04-25 20:21 50.94327 -35.90754 32676 ft 521 kts 76°
2026-04-25 20:21 50.95468 -35.85277 32950 ft 522 kts 76°
2026-04-25 20:21 50.96607 -35.79794 33232 ft 523 kts 76°
2026-04-25 20:22 50.97744 -35.74305 33490 ft 524 kts 77°
2026-04-25 20:22 50.98496 -35.70667 33684 ft 525 kts 77°
2026-04-25 20:22 51.00015 -35.63297 34010 ft 525 kts 77°
2026-04-25 20:22 51.01148 -35.57786 34243 ft 525 kts 77°
2026-04-25 20:23 51.02263 -35.52348 34471 ft 525 kts 77°
2026-04-25 20:23 51.03388 -35.46836 34716 ft 524 kts 77°
2026-04-25 20:23 51.04513 -35.41319 34951 ft 524 kts 77°
2026-04-25 20:23 51.05630 -35.35824 35187 ft 523 kts 77°
2026-04-25 20:24 51.06747 -35.30311 35435 ft 523 kts 77°
2026-04-25 20:24 51.07861 -35.24800 35678 ft 523 kts 76°
2026-04-25 20:24 51.08972 -35.19291 35918 ft 522 kts 76°
2026-04-25 20:24 51.10077 -35.13791 36167 ft 522 kts 76°
2026-04-25 20:25 51.11180 -35.08284 36402 ft 521 kts 76°
2026-04-25 20:25 51.12278 -35.02789 36657 ft 521 kts 76°
2026-04-25 20:25 51.13375 -34.97282 36915 ft 522 kts 76°
2026-04-25 20:25 51.14469 -34.91776 37198 ft 522 kts 76°
2026-04-25 20:26 51.15561 -34.86261 37456 ft 522 kts 76°
2026-04-25 20:26 51.16652 -34.80744 37713 ft 523 kts 76°
2026-04-25 20:26 51.17726 -34.75291 37982 ft 523 kts 76°
2026-04-25 20:26 51.18813 -34.69756 38271 ft 524 kts 76°
2026-04-25 20:27 51.19900 -34.64207 38525 ft 524 kts 76°
2026-04-25 20:27 51.20986 -34.58650 38743 ft 525 kts 76°
2026-04-25 20:27 51.22069 -34.53088 38975 ft 525 kts 76°
2026-04-25 20:27 51.23150 -34.47522 39196 ft 525 kts 76°
2026-04-25 20:28 51.24228 -34.41957 39422 ft 526 kts 76°
2026-04-25 20:28 51.25307 -34.36369 39648 ft 525 kts 76°
2026-04-25 20:28 51.26379 -34.30801 39881 ft 525 kts 76°
2026-04-25 20:28 51.27450 -34.25221 40108 ft 525 kts 76°
2026-04-25 20:29 51.28516 -34.19649 40354 ft 525 kts 76°
2026-04-25 20:29 51.29581 -34.14067 40591 ft 525 kts 76°
2026-04-25 20:29 51.30642 -34.08492 40834 ft 524 kts 76°
2026-04-25 20:29 51.31700 -34.02910 41083 ft 524 kts 76°
2026-04-25 20:30 51.32755 -33.97332 41340 ft 524 kts 76°
2026-04-25 20:30 51.33806 -33.91760 41580 ft 523 kts 75°
2026-04-25 20:30 51.34838 -33.86266 41825 ft 522 kts 75°
2026-04-25 20:30 51.35882 -33.80697 42085 ft 521 kts 75°
2026-04-25 20:31 51.36918 -33.75153 42341 ft 518 kts 75°
2026-04-25 20:31 51.37946 -33.69638 42600 ft 515 kts 75°
2026-04-25 20:31 51.38965 -33.64158 42868 ft 512 kts 76°
2026-04-25 20:31 51.39975 -33.58706 43128 ft 509 kts 76°
2026-04-25 20:32 51.40976 -33.53282 43391 ft 506 kts 76°
2026-04-25 20:32 51.41969 -33.47892 43650 ft 503 kts 76°
2026-04-25 20:32 51.42953 -33.42533 43906 ft 499 kts 75°
2026-04-25 20:32 51.43928 -33.37212 44179 ft 496 kts 76°
2026-04-25 20:33 51.44892 -33.31929 44456 ft 492 kts 76°
2026-04-25 20:33 51.45847 -33.26681 44712 ft 489 kts 76°
2026-04-25 20:33 51.46796 -33.21449 44849 ft 489 kts 76°
2026-04-25 20:33 51.47425 -33.17975 44839 ft 492 kts 76°
2026-04-25 20:34 51.49656 -33.05601 44854 ft 501 kts 76°
2026-04-25 20:34 51.51595 -32.94772 44868 ft 508 kts 76°
2026-04-25 20:35 51.53552 -32.83784 44885 ft 515 kts 76°
2026-04-25 20:35 51.55525 -32.72634 44889 ft 522 kts 76°
2026-04-25 20:36 51.57513 -32.61324 44882 ft 529 kts 76°
2026-04-25 20:36 51.59510 -32.49896 44891 ft 533 kts 76°
2026-04-25 20:37 51.61506 -32.38397 44890 ft 535 kts 76°
2026-04-25 20:37 51.63499 -32.26846 44902 ft 536 kts 76°
2026-04-25 20:38 51.65486 -32.15249 44900 ft 537 kts 76°
2026-04-25 20:38 51.67461 -32.03647 44900 ft 537 kts 76°
2026-04-25 20:39 51.69427 -31.92014 44903 ft 538 kts 76°
2026-04-25 20:39 51.71055 -31.82329 44907 ft 538 kts 76°
2026-04-25 20:40 51.73317 -31.68772 44917 ft 539 kts 76°
2026-04-25 20:40 51.75255 -31.57079 44930 ft 539 kts 76°
2026-04-25 20:41 51.77182 -31.45366 44925 ft 539 kts 76°
2026-04-25 20:41 51.79095 -31.33658 44939 ft 540 kts 76°
2026-04-25 20:42 51.81000 -31.21919 44946 ft 540 kts 77°
2026-04-25 20:42 51.82893 -31.10170 44939 ft 540 kts 77°
2026-04-25 20:43 51.84776 -30.98403 44957 ft 540 kts 77°
2026-04-25 20:43 51.86647 -30.86627 44958 ft 541 kts 77°
2026-04-25 20:44 51.88506 -30.74837 44950 ft 541 kts 77°
2026-04-25 20:44 51.90344 -30.63103 44960 ft 541 kts 77°
2026-04-25 20:45 51.92182 -30.51283 44961 ft 541 kts 77°
2026-04-25 20:45 51.94008 -30.39450 44964 ft 541 kts 77°
2026-04-25 20:46 51.95825 -30.27600 44979 ft 541 kts 77°
2026-04-25 20:46 51.97627 -30.15753 44968 ft 541 kts 77°
2026-04-25 20:47 51.99419 -30.03878 44976 ft 542 kts 77°
2026-04-25 20:47 52.01869 -29.92319 44981 ft 543 kts 68°
2026-04-25 20:48 52.04830 -29.81046 44991 ft 542 kts 69°
2026-04-25 20:48 52.07595 -29.69632 44995 ft 542 kts 69°
2026-04-25 20:49 52.10464 -29.58351 44994 ft 543 kts 69°
2026-04-25 20:49 52.13251 -29.46937 44996 ft 543 kts 69°
2026-04-25 20:50 52.16083 -29.35534 45000 ft 543 kts 69°
2026-04-25 20:50 52.18874 -29.24093 45000 ft 543 kts 69°
2026-04-25 20:51 52.21673 -29.12639 44998 ft 543 kts 69°
2026-04-25 20:51 52.24450 -29.01177 45007 ft 544 kts 69°
2026-04-25 20:52 52.26756 -28.91623 45012 ft 544 kts 69°
2026-04-25 20:52 52.29985 -28.78178 45013 ft 544 kts 70°
2026-04-25 20:53 52.32716 -28.66734 45012 ft 544 kts 70°
2026-04-25 20:53 52.35455 -28.55203 45013 ft 544 kts 70°
2026-04-25 20:54 52.38185 -28.43642 45020 ft 544 kts 70°
2026-04-25 20:54 52.40902 -28.32073 45018 ft 544 kts 70°
2026-04-25 20:55 52.43611 -28.20482 45022 ft 545 kts 70°
2026-04-25 20:55 52.46307 -28.08877 45015 ft 545 kts 70°
2026-04-25 20:56 52.48997 -27.97241 45014 ft 545 kts 70°
2026-04-25 20:56 52.51672 -27.85602 45011 ft 545 kts 70°
2026-04-25 20:57 52.54324 -27.74002 45021 ft 545 kts 70°
2026-04-25 20:57 52.56978 -27.62326 45025 ft 545 kts 70°
2026-04-25 20:58 52.59620 -27.50639 45024 ft 545 kts 70°
2026-04-25 20:58 52.62254 -27.38924 45018 ft 546 kts 70°
2026-04-25 20:59 52.64879 -27.27185 45010 ft 546 kts 71°
2026-04-25 20:59 52.67492 -27.15432 45016 ft 546 kts 71°
2026-04-25 21:00 52.69232 -27.07566 45012 ft 546 kts 71°
2026-04-25 21:01 52.73972 -26.85992 45025 ft 546 kts 71°
2026-04-25 21:01 52.76530 -26.74253 45022 ft 547 kts 71°
2026-04-25 21:02 52.79092 -26.62430 45023 ft 547 kts 71°
2026-04-25 21:02 52.81231 -26.52507 45024 ft 547 kts 71°
2026-04-25 21:03 52.83771 -26.40659 45021 ft 547 kts 71°
2026-04-25 21:03 52.86284 -26.28871 45023 ft 547 kts 71°
2026-04-25 21:04 52.88804 -26.16978 45026 ft 547 kts 71°
2026-04-25 21:04 52.91316 -26.05054 45032 ft 547 kts 71°
2026-04-25 21:05 52.93813 -25.93131 45035 ft 547 kts 71°
2026-04-25 21:05 52.96297 -25.81198 45036 ft 548 kts 71°
2026-04-25 21:06 52.98771 -25.69242 45031 ft 548 kts 72°
2026-04-25 21:06 53.01232 -25.57280 45023 ft 548 kts 72°
2026-04-25 21:07 53.03667 -25.45370 45035 ft 548 kts 72°
2026-04-25 21:07 53.06106 -25.33370 45036 ft 548 kts 72°
2026-04-25 21:08 53.08536 -25.21338 45038 ft 548 kts 72°
2026-04-25 21:08 53.10949 -25.09317 45027 ft 548 kts 72°
2026-04-25 21:09 53.14549 -24.91249 45022 ft 548 kts 72°
2026-04-25 21:09 53.16936 -24.79177 45030 ft 548 kts 72°
2026-04-25 21:10 53.19293 -24.67177 45042 ft 548 kts 72°
2026-04-25 21:10 53.21668 -24.55010 45036 ft 548 kts 72°
2026-04-25 21:11 53.24001 -24.42988 45034 ft 548 kts 72°
2026-04-25 21:11 53.26337 -24.30868 45034 ft 548 kts 72°
2026-04-25 21:12 53.28661 -24.18740 45032 ft 548 kts 72°
2026-04-25 21:12 53.30583 -24.08645 45032 ft 548 kts 73°
2026-04-25 21:13 53.33273 -23.94431 45041 ft 548 kts 73°
2026-04-25 21:13 53.35561 -23.82253 45039 ft 548 kts 73°
2026-04-25 21:14 53.37836 -23.70064 45031 ft 548 kts 73°
2026-04-25 21:14 53.40098 -23.57868 45039 ft 548 kts 73°
2026-04-25 21:15 53.42346 -23.45666 45040 ft 548 kts 73°
2026-04-25 21:15 53.44583 -23.33447 45039 ft 548 kts 73°
2026-04-25 21:16 53.46791 -23.21303 45036 ft 548 kts 73°
2026-04-25 21:16 53.49001 -23.09064 45038 ft 548 kts 73°
2026-04-25 21:17 53.51202 -22.96798 45041 ft 548 kts 73°
2026-04-25 21:17 53.53386 -22.84540 45039 ft 548 kts 74°
2026-04-25 21:18 53.55559 -22.72265 45042 ft 548 kts 74°
2026-04-25 21:18 53.57717 -22.59986 45050 ft 547 kts 74°
2026-04-25 21:19 53.59866 -22.47681 45048 ft 547 kts 74°
2026-04-25 21:19 53.61998 -22.35383 45047 ft 547 kts 74°
2026-04-25 21:20 53.63763 -22.25139 45037 ft 548 kts 74°
2026-04-25 21:20 53.66216 -22.10803 45035 ft 548 kts 74°
2026-04-25 21:21 53.68312 -21.98455 45044 ft 548 kts 75°
2026-04-25 21:21 53.70395 -21.86098 45048 ft 548 kts 75°
2026-04-25 21:22 53.72467 -21.73727 45051 ft 548 kts 75°
2026-04-25 21:22 53.74527 -21.61331 45050 ft 548 kts 75°
2026-04-25 21:23 53.76576 -21.48913 45048 ft 548 kts 75°
2026-04-25 21:23 53.78609 -21.36503 45049 ft 548 kts 75°
2026-04-25 21:24 53.80631 -21.24070 45050 ft 548 kts 75°
2026-04-25 21:24 53.82638 -21.11636 45054 ft 548 kts 75°
2026-04-25 21:25 53.84623 -20.99251 45053 ft 548 kts 75°
2026-04-25 21:25 53.86606 -20.86785 45050 ft 548 kts 75°
2026-04-25 21:26 53.88577 -20.74302 45049 ft 548 kts 76°
2026-04-25 21:26 53.90534 -20.61810 45052 ft 548 kts 76°
2026-04-25 21:27 53.92477 -20.49313 45057 ft 548 kts 76°
2026-04-25 21:27 53.94407 -20.36807 45057 ft 548 kts 76°
2026-04-25 21:28 53.96327 -20.24276 45057 ft 548 kts 76°
2026-04-25 21:28 53.98233 -20.11732 45060 ft 548 kts 76°
2026-04-25 21:29 53.99961 -19.99229 45053 ft 547 kts 83°
2026-04-25 21:29 54.00316 -19.86341 45078 ft 545 kts 91°
2026-04-25 21:30 54.00482 -19.73459 45084 ft 545 kts 88°
2026-04-25 21:30 54.00770 -19.62758 45083 ft 545 kts 90°
2026-04-25 21:31 54.00943 -19.47706 45086 ft 545 kts 89°
2026-04-25 21:31 54.01202 -19.34838 45086 ft 545 kts 90°
2026-04-25 21:32 54.01350 -19.22056 45093 ft 545 kts 90°
2026-04-25 21:32 54.01556 -19.09174 45095 ft 545 kts 90°
2026-04-25 21:33 54.01701 -18.96300 45079 ft 545 kts 90°
2026-04-25 21:33 54.01861 -18.83426 45087 ft 545 kts 90°
2026-04-25 21:34 54.01990 -18.70547 45092 ft 545 kts 90°
2026-04-25 21:34 54.02116 -18.57660 45097 ft 545 kts 90°
2026-04-25 21:35 54.02222 -18.44770 45104 ft 545 kts 90°
2026-04-25 21:35 54.02318 -18.31885 45111 ft 545 kts 90°
2026-04-25 21:36 54.02398 -18.19000 45103 ft 545 kts 91°
2026-04-25 21:36 54.02465 -18.06192 45103 ft 545 kts 91°
2026-04-25 21:37 54.02510 -17.95397 45104 ft 545 kts 91°
2026-04-25 21:37 54.02557 -17.80414 45114 ft 545 kts 91°
2026-04-25 21:38 54.02583 -17.67514 45119 ft 545 kts 91°
2026-04-25 21:38 54.02595 -17.54615 45112 ft 545 kts 91°
2026-04-25 21:39 54.02593 -17.41720 45114 ft 545 kts 91°
2026-04-25 21:39 54.02577 -17.28820 45119 ft 545 kts 91°
2026-04-25 21:40 54.02547 -17.15927 45121 ft 545 kts 91°
2026-04-25 21:40 54.02504 -17.03011 45127 ft 545 kts 91°
2026-04-25 21:41 54.02447 -16.90190 45127 ft 546 kts 91°
2026-04-25 21:41 54.02376 -16.77254 45130 ft 546 kts 92°
2026-04-25 21:42 54.02291 -16.64319 45138 ft 546 kts 92°
2026-04-25 21:42 54.02192 -16.51399 45141 ft 546 kts 92°
2026-04-25 21:43 54.02080 -16.38487 45151 ft 546 kts 92°
2026-04-25 21:43 54.01954 -16.25652 45151 ft 547 kts 92°
2026-04-25 21:44 54.01814 -16.12728 45153 ft 547 kts 92°
2026-04-25 21:45 54.01578 -15.93345 45138 ft 546 kts 92°
2026-04-25 21:45 54.01402 -15.80417 45142 ft 546 kts 92°
2026-04-25 21:46 54.01213 -15.67495 45153 ft 546 kts 92°
2026-04-25 21:46 54.01011 -15.54572 45153 ft 547 kts 92°
2026-04-25 21:47 54.00794 -15.41645 45147 ft 546 kts 92°
2026-04-25 21:47 54.00564 -15.28736 45156 ft 546 kts 92°
2026-04-25 21:48 54.00321 -15.15906 45158 ft 547 kts 93°
2026-04-25 21:48 54.00063 -15.02989 45160 ft 547 kts 93°
2026-04-25 21:49 54.00035 -14.90069 45166 ft 546 kts 90°
2026-04-25 21:49 54.00080 -14.77143 45157 ft 546 kts 91°
2026-04-25 21:50 54.00093 -14.64227 45178 ft 546 kts 91°
2026-04-25 21:50 54.00109 -14.51294 45180 ft 547 kts 91°
2026-04-25 21:51 54.00098 -14.38455 45180 ft 547 kts 91°
2026-04-25 21:51 54.00082 -14.25530 45177 ft 547 kts 91°
2026-04-25 21:52 54.00046 -14.12602 45181 ft 547 kts 91°
2026-04-25 21:52 53.99723 -13.99696 45173 ft 545 kts 99°
2026-04-25 21:53 53.97696 -13.87345 45182 ft 542 kts 112°
2026-04-25 21:53 53.94966 -13.75433 45188 ft 541 kts 111°
2026-04-25 21:54 53.93072 -13.65296 45197 ft 542 kts 108°
2026-04-25 21:54 53.90576 -13.53245 45202 ft 541 kts 112°
2026-04-25 21:55 53.88115 -13.41167 45202 ft 542 kts 109°
2026-04-25 21:55 53.85646 -13.29094 45203 ft 542 kts 111°
2026-04-25 21:56 53.83135 -13.17056 45197 ft 542 kts 110°
2026-04-25 21:56 53.80649 -13.05005 45200 ft 542 kts 111°
2026-04-25 21:57 53.78116 -12.93000 45198 ft 542 kts 111°
2026-04-25 21:57 53.75620 -12.81078 45199 ft 542 kts 111°
2026-04-25 21:58 53.73072 -12.69102 45197 ft 542 kts 111°
2026-04-25 21:58 53.70526 -12.57118 45198 ft 542 kts 111°
2026-04-25 21:59 53.67959 -12.45167 45204 ft 541 kts 111°
2026-04-25 21:59 53.65388 -12.33230 45205 ft 541 kts 111°
2026-04-25 22:00 53.62796 -12.21287 44750 ft 542 kts 111°
2026-04-25 22:00 53.61512 -12.15385 44177 ft 532 kts 111°
2026-04-25 22:00 53.60246 -12.09580 43627 ft 523 kts 111°
2026-04-25 22:00 53.58994 -12.03873 43094 ft 516 kts 112°
2026-04-25 22:01 53.57756 -11.98245 42553 ft 510 kts 112°
2026-04-25 22:01 53.56531 -11.92684 42016 ft 521 kts 112°
2026-04-25 22:01 53.55259 -11.86929 41499 ft 525 kts 112°
2026-04-25 22:01 53.54401 -11.83046 41156 ft 524 kts 112°
2026-04-25 22:02 53.52723 -11.75477 40491 ft 520 kts 112°
2026-04-25 22:02 53.51462 -11.69818 40002 ft 515 kts 113°
2026-04-25 22:02 53.50205 -11.64194 39510 ft 510 kts 113°
2026-04-25 22:02 53.48965 -11.58649 39036 ft 505 kts 113°
2026-04-25 22:03 53.47732 -11.53155 38483 ft 500 kts 113°
2026-04-25 22:03 53.46510 -11.47728 37907 ft 495 kts 114°
2026-04-25 22:03 53.45300 -11.42364 37336 ft 490 kts 114°
2026-04-25 22:03 53.44095 -11.37042 36756 ft 485 kts 114°
2026-04-25 22:04 53.42902 -11.31780 36221 ft 480 kts 114°
2026-04-25 22:04 53.41720 -11.26578 35697 ft 476 kts 114°
2026-04-25 22:04 53.40541 -11.21406 35181 ft 472 kts 115°
2026-04-25 22:04 53.39373 -11.16295 34668 ft 469 kts 115°
2026-04-25 22:05 53.38173 -11.11079 34113 ft 491 kts 115°
2026-04-25 22:05 53.36914 -11.05623 33511 ft 512 kts 115°
2026-04-25 22:05 53.35630 -11.00016 32917 ft 517 kts 115°
2026-04-25 22:05 53.34341 -10.94391 32330 ft 517 kts 115°
2026-04-25 22:06 53.33047 -10.88803 31748 ft 514 kts 115°
2026-04-25 22:06 53.31753 -10.83253 31172 ft 510 kts 115°
2026-04-25 22:06 53.30472 -10.77747 30614 ft 506 kts 115°
2026-04-25 22:06 53.29204 -10.72294 30005 ft 501 kts 115°
2026-04-25 22:07 53.27958 -10.66962 29363 ft 497 kts 115°
2026-04-25 22:07 53.27110 -10.63350 28933 ft 494 kts 115°
2026-04-25 22:07 53.25454 -10.56309 28082 ft 489 kts 115°
2026-04-25 22:07 53.24216 -10.51044 27474 ft 485 kts 115°
2026-04-25 22:08 53.22986 -10.45833 26882 ft 480 kts 115°
2026-04-25 22:08 53.21763 -10.40670 26299 ft 476 kts 115°
2026-04-25 22:08 53.20548 -10.35553 25729 ft 472 kts 115°
2026-04-25 22:08 53.19342 -10.30481 25164 ft 469 kts 115°
2026-04-25 22:09 53.18141 -10.25443 24606 ft 465 kts 115°
2026-04-25 22:09 53.16949 -10.20456 24069 ft 461 kts 115°
2026-04-25 22:09 53.15765 -10.15511 23489 ft 458 kts 115°
2026-04-25 22:09 53.14589 -10.10608 22854 ft 453 kts 115°
2026-04-25 22:10 53.13421 -10.05757 22254 ft 449 kts 115°
2026-04-25 22:10 53.12277 -10.01003 21601 ft 430 kts 115°
2026-04-25 22:10 53.11183 -9.96461 20954 ft 417 kts 115°
2026-04-25 22:10 53.10105 -9.92027 20322 ft 411 kts 115°
2026-04-25 22:11 53.09039 -9.87645 19708 ft 406 kts 115°
2026-04-25 22:11 53.07985 -9.83305 19107 ft 402 kts 115°
2026-04-25 22:11 53.06941 -9.79011 18522 ft 398 kts 115°
2026-04-25 22:11 53.05905 -9.74770 17846 ft 394 kts 115°
2026-04-25 22:12 53.04880 -9.70578 17248 ft 389 kts 115°
2026-04-25 22:12 53.03865 -9.66436 16722 ft 384 kts 115°
2026-04-25 22:12 53.02858 -9.62334 16215 ft 382 kts 115°
2026-04-25 22:12 53.02195 -9.59639 15888 ft 380 kts 115°
2026-04-25 22:13 53.01028 -9.54124 15205 ft 377 kts 108°
2026-04-25 22:13 53.00352 -9.49992 14719 ft 375 kts 108°
2026-04-25 22:13 52.99654 -9.45842 14254 ft 372 kts 108°
2026-04-25 22:13 52.98946 -9.41738 13751 ft 368 kts 108°
2026-04-25 22:14 52.98250 -9.37664 13222 ft 365 kts 108°
2026-04-25 22:14 52.97565 -9.33615 12758 ft 363 kts 108°
2026-04-25 22:14 52.96880 -9.29600 12324 ft 360 kts 108°
2026-04-25 22:14 52.96197 -9.25624 11896 ft 358 kts 108°
2026-04-25 22:15 52.95518 -9.21669 11467 ft 355 kts 108°
2026-04-25 22:15 52.94844 -9.17741 11049 ft 353 kts 108°
2026-04-25 22:15 52.94174 -9.13846 10631 ft 350 kts 108°
2026-04-25 22:16 52.92842 -9.06152 9773 ft 344 kts 108°
2026-04-25 22:16 52.92185 -9.02356 9321 ft 342 kts 108°
2026-04-25 22:16 52.91530 -8.98590 8876 ft 339 kts 108°
2026-04-25 22:16 52.90925 -8.94890 8422 ft 320 kts 104°
2026-04-25 22:17 52.90921 -8.91324 7893 ft 305 kts 82°
2026-04-25 22:17 52.91530 -8.88049 7445 ft 290 kts 72°
2026-04-25 22:17 52.92205 -8.84984 7025 ft 277 kts 72°
2026-04-25 22:17 52.92842 -8.82031 6604 ft 267 kts 72°
2026-04-25 22:18 52.93452 -8.79171 6160 ft 260 kts 73°
2026-04-25 22:18 52.94046 -8.76401 5967 ft 249 kts 72°
2026-04-25 22:18 52.94626 -8.73677 5969 ft 251 kts 73°
2026-04-25 22:18 52.94804 -8.70855 5916 ft 246 kts 101°
2026-04-25 22:19 52.94147 -8.68274 5941 ft 243 kts 128°
2026-04-25 22:19 52.92931 -8.66413 5684 ft 242 kts 144°
2026-04-25 22:19 52.91584 -8.64748 5334 ft 242 kts 144°
2026-04-25 22:19 52.90275 -8.63103 4873 ft 230 kts 143°
2026-04-25 22:20 52.89035 -8.61519 4334 ft 222 kts 143°
2026-04-25 22:20 52.87762 -8.60146 3714 ft 218 kts 158°
2026-04-25 22:20 52.86258 -8.59957 2990 ft 222 kts 191°
2026-04-25 22:20 52.84971 -8.61058 2937 ft 194 kts 220°
2026-04-25 22:21 52.84153 -8.62733 2978 ft 188 kts 234°
2026-04-25 22:21 52.83370 -8.64429 2984 ft 184 kts 232°
2026-04-25 22:21 52.82585 -8.66098 2982 ft 184 kts 232°
2026-04-25 22:21 52.81808 -8.67751 2967 ft 180 kts 232°
2026-04-25 22:22 52.81033 -8.69400 2966 ft 182 kts 232°
2026-04-25 22:22 52.80301 -8.70958 2967 ft 170 kts 232°
2026-04-25 22:22 52.79582 -8.72503 2815 ft 160 kts 232°
2026-04-25 22:22 52.78958 -8.73829 2628 ft 135 kts 233°
2026-04-25 22:23 52.78397 -8.75023 2457 ft 130 kts 233°
2026-04-25 22:23 52.77850 -8.76196 2265 ft 128 kts 233°
2026-04-25 22:23 52.77310 -8.77346 2125 ft 126 kts 234°
2026-04-25 22:23 52.76771 -8.78491 1927 ft 126 kts 234°
2026-04-25 22:24 52.76240 -8.79631 1762 ft 125 kts 234°
2026-04-25 22:24 52.75705 -8.80766 1589 ft 125 kts 234°
2026-04-25 22:24 52.75181 -8.81881 1449 ft 124 kts 234°
2026-04-25 22:24 52.74655 -8.83008 1285 ft 124 kts 234°
2026-04-25 22:25 52.74130 -8.84128 1112 ft 124 kts 234°
2026-04-25 22:25 52.73603 -8.85253 908 ft 123 kts 234°
2026-04-25 22:25 52.73082 -8.86370 760 ft 123 kts 234°
2026-04-25 22:25 52.72561 -8.87492 574 ft 123 kts 234°
2026-04-25 22:26 52.72035 -8.88593 374 ft 122 kts 234°
2026-04-25 22:26 52.71516 -8.89683 219 ft 121 kts 234°
2026-04-25 22:26 52.70999 -8.90789 63 ft 121 kts 235°
2026-04-25 22:26 52.70530 -8.91790 24 ft 89 kts 231°
2026-04-25 22:27 52.70262 -8.92356 29 ft 50 kts 232°
2026-04-25 22:27 52.70123 -8.92654 29 ft 47 kts 232°